Weather History for Alpine, TX

Change the Weather History Date:

Sunday, August 11, 2013

  Actual Average (KMRF) Record (KMRF)
Temperature  
Mean Temperature 76 °F -  
Max Temperature 89 °F 84 °F 93 °F (2006)
Min Temperature 64 °F 58 °F 55 °F (2004)
Cooling Degree Days 12    
Growing Degree Days 26 (Base 50)    
Moisture  
Dew Point 57 °F    
Average Humidity 53    
Maximum Humidity 82    
Minimum Humidity 30    
Precipitation  
Precipitation 0.00 in - - ()
Sea Level Pressure  
Sea Level Pressure 30.26 in    
Wind  
Wind Speed 5 mph (SE)    
Max Wind Speed 16 mph    
Max Gust Speed 26 mph    
Visibility 10 miles    
Events      
Averages and records for this station are not official NWS values.
T = Trace of Precipitation, MM = Missing Value Source: NWS Daily Summary

Daily Weather History Graph

Daily Weather History Graph

Search for Another Location

Airport:

Trip Planner

Search our weather history database for the weather conditions in past years. The results will help you decide how hot, cold, wet, or windy it might be!

Date:

Astronomy

Aug. 11, 2013 Rise Set
Actual Time 7:19 AM CDT 8:39 PM CDT
Civil Twilight 6:53 AM CDT 9:05 PM CDT
Nautical Twilight 6:23 AM CDT 9:35 PM CDT
Astronomical Twilight 5:51 AM CDT 10:07 PM CDT
Moon 11:44 AM CDT (8/11) 11:23 PM CDT (8/11)
Length of Visible Light 14h 11m
Length of Day
13h 20m
Waxing Crescent, 22% of the Moon is Illuminated
Aug 11
Waxing Crescent
Aug 14
First Quarter
Aug 20
Full
Aug 28
Last Quarter
Sep 5
New

Hourly Weather History & Observations

Time (CDT) Temp. Heat Index Dew Point Humidity Pressure Visibility Wind Dir Wind Speed Gust Speed Precip Events Conditions
12:15 AM 69.4 °F - 59.0 °F 69% 30.30 in 10.0 mi NW 4.6 mph - N/A   Scattered Clouds
12:35 AM 70.0 °F - 59.0 °F 68% 30.30 in 10.0 mi Calm Calm - N/A   Scattered Clouds
12:55 AM 69.1 °F - 59.7 °F 72% 30.29 in 10.0 mi SSE 3.5 mph - N/A   Mostly Cloudy
1:15 AM 67.6 °F - 59.9 °F 76% 30.30 in 10.0 mi Calm Calm - N/A   Scattered Clouds
1:35 AM 67.6 °F - 59.9 °F 76% 30.29 in 10.0 mi South 3.5 mph - N/A   Scattered Clouds
1:55 AM 69.8 °F - 59.0 °F 68% 30.28 in 10.0 mi SSE 5.8 mph - N/A   Scattered Clouds
2:15 AM 72.5 °F - 58.1 °F 60% 30.28 in 10.0 mi SE 9.2 mph - N/A   Scattered Clouds
2:35 AM 72.5 °F - 58.3 °F 61% 30.27 in 10.0 mi SSE 5.8 mph - N/A   Clear
2:55 AM 72.0 °F - 58.5 °F 62% 30.27 in 10.0 mi SSE 6.9 mph - N/A   Clear
3:15 AM 70.3 °F - 58.3 °F 66% 30.27 in 10.0 mi SSE 3.5 mph - N/A   Clear
3:35 AM 68.7 °F - 58.3 °F 69% 30.26 in 10.0 mi WSW 4.6 mph - N/A   Clear
3:55 AM 68.7 °F - 58.5 °F 70% 30.26 in 10.0 mi Calm Calm - N/A   Clear
4:15 AM 67.8 °F - 58.3 °F 71% 30.26 in 10.0 mi Calm Calm - N/A   Clear
4:35 AM 68.4 °F - 58.5 °F 71% 30.26 in 10.0 mi Calm Calm - N/A   Clear
4:55 AM 67.1 °F - 58.5 °F 74% 30.27 in 10.0 mi WSW 4.6 mph - N/A   Scattered Clouds
5:15 AM 69.1 °F - 59.0 °F 70% 30.26 in 10.0 mi SSW 3.5 mph - N/A   Scattered Clouds
5:35 AM 68.0 °F - 59.0 °F 73% 30.26 in 10.0 mi SSW 8.1 mph - N/A   Clear
5:55 AM 67.3 °F - 59.2 °F 75% 30.26 in 10.0 mi SW 5.8 mph - N/A   Clear
6:15 AM 67.1 °F - 59.0 °F 75% 30.26 in 10.0 mi SSW 4.6 mph - N/A   Clear
6:35 AM 65.1 °F - 59.0 °F 81% 30.27 in 10.0 mi South 3.5 mph - N/A   Clear
6:55 AM 64.2 °F - 58.5 °F 82% 30.28 in 10.0 mi Calm Calm - N/A   Clear
7:15 AM 68.7 °F - 59.4 °F 72% 30.28 in 10.0 mi Calm Calm - N/A   Clear
7:35 AM 66.9 °F - 59.2 °F 76% 30.29 in 10.0 mi South 4.6 mph - N/A   Clear
7:55 AM 67.3 °F - 59.9 °F 77% 30.29 in 10.0 mi SW 3.5 mph - N/A   Clear
8:15 AM 68.9 °F - 60.4 °F 74% 30.29 in 10.0 mi Calm Calm - N/A   Clear
8:35 AM 70.9 °F - 60.4 °F 69% 30.30 in 10.0 mi Calm Calm - N/A   Clear
8:55 AM 72.9 °F - 59.5 °F 63% 30.31 in 10.0 mi Calm Calm - N/A   Scattered Clouds
9:15 AM 75.2 °F - 59.4 °F 58% 30.31 in 10.0 mi Calm Calm - N/A   Clear
9:35 AM 75.2 °F - 58.6 °F 56% 30.32 in 10.0 mi South 3.5 mph - N/A   Scattered Clouds
9:55 AM 74.7 °F - 59.0 °F 58% 30.32 in 10.0 mi Calm Calm - N/A   Mostly Cloudy
10:15 AM 75.7 °F - 59.2 °F 56% 30.32 in 10.0 mi Calm Calm - N/A   Overcast
10:35 AM 77.4 °F - 59.2 °F 53% 30.32 in 10.0 mi Calm Calm - N/A   Mostly Cloudy
10:55 AM 77.9 °F - 59.0 °F 52% 30.32 in 10.0 mi Calm Calm - N/A   Scattered Clouds
11:15 AM 79.9 °F - 58.3 °F 48% 30.32 in 10.0 mi SE 5.8 mph - N/A   Scattered Clouds
11:35 AM 80.6 °F 80.8 °F 57.7 °F 45% 30.31 in 10.0 mi South 3.5 mph - N/A   Mostly Cloudy
11:55 AM 82.4 °F 82.0 °F 57.0 °F 42% 30.31 in 10.0 mi SE 6.9 mph - N/A   Mostly Cloudy
12:15 PM 84.7 °F 83.6 °F 55.6 °F 37% 30.31 in 10.0 mi ESE 9.2 mph 17.3 mph N/A   Scattered Clouds
12:35 PM 83.5 °F 82.8 °F 57.0 °F 40% 30.30 in 10.0 mi ESE 10.4 mph 19.6 mph N/A   Scattered Clouds
12:55 PM 84.7 °F 83.9 °F 57.4 °F 39% 30.29 in 10.0 mi East 9.2 mph 17.3 mph N/A   Scattered Clouds
1:15 PM 84.7 °F 83.7 °F 56.5 °F 38% 30.29 in 10.0 mi SE 6.9 mph - N/A   Scattered Clouds
1:35 PM 83.8 °F 82.8 °F 55.4 °F 38% 30.29 in 10.0 mi ESE 6.9 mph 21.9 mph N/A   Scattered Clouds
1:55 PM 85.3 °F 84.1 °F 56.5 °F 37% 30.28 in 10.0 mi SE 11.5 mph - N/A   Scattered Clouds
2:15 PM 86.7 °F 85.1 °F 55.4 °F 34% 30.27 in 10.0 mi SE 6.9 mph 17.3 mph N/A   Scattered Clouds
2:35 PM 86.4 °F 84.5 °F 54.1 °F 33% 30.27 in 10.0 mi SE 9.2 mph 17.3 mph N/A   Mostly Cloudy
2:55 PM 89.1 °F 87.1 °F 55.0 °F 31% 30.25 in 10.0 mi East 12.7 mph 26.5 mph N/A   Mostly Cloudy
3:15 PM 88.2 °F 86.5 °F 55.6 °F 33% 30.25 in 10.0 mi SE 10.4 mph 19.6 mph N/A   Scattered Clouds
3:35 PM 86.0 °F 84.3 °F 54.5 °F 34% 30.24 in 10.0 mi East 16.1 mph 20.7 mph N/A   Mostly Cloudy
3:55 PM 88.0 °F 86.1 °F 54.5 °F 32% 30.24 in 10.0 mi ENE 10.4 mph 17.3 mph N/A   Mostly Cloudy
4:15 PM 87.8 °F - 52.9 °F 30% 30.24 in 10.0 mi East 15.0 mph 21.9 mph N/A   Scattered Clouds
4:35 PM 88.0 °F 86.1 °F 54.9 °F 32% 30.23 in 10.0 mi East 13.8 mph - N/A   Clear
4:55 PM 86.4 °F 84.7 °F 54.9 °F 34% 30.22 in 10.0 mi East 10.4 mph 20.7 mph N/A   Clear
5:15 PM 85.3 °F 83.6 °F 54.3 °F 34% 30.22 in 10.0 mi SE 9.2 mph 18.4 mph N/A   Scattered Clouds
5:35 PM 87.1 °F 85.1 °F 54.0 °F 32% 30.21 in 10.0 mi East 10.4 mph - N/A   Scattered Clouds
5:55 PM 88.0 °F 85.7 °F 53.2 °F 30% 30.21 in 10.0 mi ENE 13.8 mph 17.3 mph N/A   Clear
6:15 PM 86.2 °F 84.4 °F 53.6 °F 33% 30.21 in 10.0 mi East 13.8 mph 19.6 mph N/A   Scattered Clouds
6:35 PM 86.7 °F - 52.9 °F 31% 30.20 in 10.0 mi ESE 8.1 mph 18.4 mph N/A   Scattered Clouds
6:55 PM 86.4 °F 84.9 °F 55.6 °F 35% 30.20 in 10.0 mi ESE 13.8 mph 19.6 mph N/A   Scattered Clouds
7:15 PM 84.6 °F 83.4 °F 55.4 °F 37% 30.20 in 10.0 mi ESE 13.8 mph 18.4 mph N/A   Scattered Clouds
7:35 PM 84.2 °F 82.9 °F 54.5 °F 36% 30.20 in 10.0 mi ESE 11.5 mph 18.4 mph N/A   Scattered Clouds
7:55 PM 83.3 °F 82.3 °F 55.4 °F 38% 30.20 in 10.0 mi ESE 12.7 mph 17.3 mph N/A   Clear
8:15 PM 81.9 °F 81.4 °F 55.8 °F 41% 30.21 in 10.0 mi ESE 11.5 mph - N/A   Clear
8:35 PM 80.8 °F 80.9 °F 56.8 °F 44% 30.21 in 10.0 mi ESE 10.4 mph - N/A   Clear
8:55 PM 80.1 °F 80.3 °F 56.5 °F 44% 30.22 in 10.0 mi SE 11.5 mph - N/A   Clear
9:15 PM 79.2 °F - 57.2 °F 47% 30.23 in 10.0 mi ESE 10.4 mph 16.1 mph N/A   Clear
9:35 PM 78.4 °F - 57.0 °F 48% 30.23 in 10.0 mi SE 6.9 mph - N/A   Clear
9:55 PM 77.4 °F - 56.3 °F 48% 30.23 in 10.0 mi ESE 9.2 mph - N/A   Clear
10:15 PM 76.8 °F - 55.8 °F 48% 30.24 in 10.0 mi ESE 3.5 mph - N/A   Clear
10:35 PM 74.7 °F - 55.9 °F 52% 30.25 in 10.0 mi East 4.6 mph - N/A   Clear
10:55 PM 75.9 °F - 56.3 °F 50% 30.25 in 10.0 mi East 3.5 mph - N/A   Clear
11:35 PM 75.6 °F - 57.9 °F 54% 30.25 in 10.0 mi East 5.8 mph - N/A   Clear